FW0153 Weather Reports


time (UTC)temp
C
wind
direction
speed
KPH
gust
KPH
rain 1hr
cm
rain 24hr
cm
rain mn
cm
humidity
%
barometer
mb
20260905232005 31 39 37.0 0.0 0.00 0.00 0.00 47 1006.9
20260905231505 32 5 20.9 0.0 0.00 0.00 0.00 46 1006.9
20260905231005 32 120 20.9 0.0 0.00 0.00 0.00 44 1006.9
20260905230505 32 44 37.0 0.0 0.00 0.00 0.00 44 1006.9
20260905230212 32 156 14.5 0.0 0.00 0.00 0.00 44 1006.5
20260905225505 32 41 37.0 0.0 0.00 0.00 0.00 44 1006.5
20260905225005 32 62 37.0 0.0 0.00 0.00 0.00 43 1006.2
20260905224504 32 356 14.5 0.0 0.00 0.00 0.00 43 1006.5
20260905224005 32 100 43.5 0.0 0.00 0.00 0.00 43 1006.5
20260905223505 32 83 29.0 0.0 0.00 0.00 0.00 42 1006.5
20260905223005 32 2 37.0 0.0 0.00 0.00 0.00 41 1006.2
20260905222505 33 62 20.9 0.0 0.00 0.00 0.00 41 1006.2
20260905222005 33 68 14.5 0.0 0.00 0.00 0.00 40 1006.2
20260905221505 33 48 20.9 0.0 0.00 0.00 0.00 40 1006.2
20260905221005 32 155 6.4 0.0 0.00 0.00 0.00 41 1006.2
20260905220504 33 44 20.9 0.0 0.00 0.00 0.00 39 1006.2
20260905220005 33 30 29.0 0.0 0.00 0.00 0.00 38 1006.2
20260905215713 33 100 29.0 0.0 0.00 0.00 0.00 37 1006.5
20260905215005 33 66 6.4 0.0 0.00 0.00 0.00 37 1006.2
20260905214505 33 90 20.9 0.0 0.00 0.00 0.00 36 1006.5
20260905214005 33 47 43.5 0.0 0.00 0.00 0.00 36 1006.5
20260905213505 33 141 6.4 0.0 0.00 0.00 0.00 36 1006.5
20260905213006 33 116 14.5 0.0 0.00 0.00 0.00 36 1006.9
20260905212712 33 125 14.5 0.0 0.00 0.00 0.00 37 1006.5
20260905212211 33 108 20.9 0.0 0.00 0.00 0.00 38 1006.5
20260905211505 33 163 20.9 0.0 0.00 0.00 0.00 38 1006.9
20260905211005 32 129 14.5 0.0 0.00 0.00 0.00 39 1006.9
20260905210505 33 104 14.5 0.0 0.00 0.00 0.00 39 1006.9
20260905210211 33 62 14.5 0.0 0.00 0.00 0.00 38 1006.9
20260905205505 33 43 20.9 0.0 0.00 0.00 0.00 38 1007.2
20260905205005 34 99 14.5 0.0 0.00 0.00 0.00 36 1007.2
20260905204712 33 8 29.0 0.0 0.00 0.00 0.00 37 1007.2
20260905204211 33 154 14.5 0.0 0.00 0.00 0.00 37 1007.6
20260905203505 33 78 20.9 0.0 0.00 0.00 0.00 37 1007.6
20260905203213 33 131 20.9 0.0 0.00 0.00 0.00 38 1007.2
20260905202505 33 136 29.0 0.0 0.00 0.00 0.00 37 1007.2
20260905202005 33 58 20.9 0.0 0.00 0.00 0.00 36 1007.6
20260905201505 33 83 6.4 0.0 0.00 0.00 0.00 38 1007.9
20260905201004 33 41 14.5 0.0 0.00 0.00 0.00 39 1007.9
20260905200505 33 51 6.4 0.0 0.00 0.00 0.00 38 1007.9
20260905200005 33 78 14.5 0.0 0.00 0.00 0.00 38 1008.2
20260905195505 33 84 20.9 0.0 0.00 0.00 0.00 37 1008.2
20260905195213 33 73 14.5 0.0 0.00 0.00 0.00 36 1008.2
20260905194505 33 107 14.5 0.0 0.00 0.00 0.00 37 1008.6
20260905194005 33 158 6.4 0.0 0.00 0.00 0.00 40 1008.6
20260905193504 33 88 6.4 0.0 0.00 0.00 0.00 39 1008.6
20260905193005 33 118 20.9 0.0 0.00 0.00 0.00 39 1008.6
20260905192712 33 79 6.4 0.0 0.00 0.00 0.00 40 1008.6
20260905192005 33 327 29.0 0.0 0.00 0.00 0.00 41 1008.9
20260905191505 33 59 14.5 0.0 0.00 0.00 0.00 39 1008.9
20260905191213 33 37 14.5 0.0 0.00 0.00 0.00 40 1009.3
20260905190505 33 124 20.9 0.0 0.00 0.00 0.00 41 1008.9
20260905190213 33 88 14.5 0.0 0.00 0.00 0.00 42 1009.3
20260905185505 33 62 20.9 0.0 0.00 0.00 0.00 43 1009.3
20260905185005 32 59 37.0 0.0 0.00 0.00 0.00 44 1009.3
20260905184505 32 82 20.9 0.0 0.00 0.00 0.00 44 1009.6
20260905184004 32 45 29.0 0.0 0.00 0.00 0.00 45 1009.3
20260905183505 33 161 14.5 0.0 0.00 0.00 0.00 43 1009.6
20260905183005 32 55 20.9 0.0 0.00 0.00 0.00 43 1009.6
20260905182505 31 72 6.4 0.0 0.00 0.00 0.00 46 1009.3
20260905182005 32 131 14.5 0.0 0.00 0.00 0.00 46 1009.6
20260905181505 32 113 6.4 0.0 0.00 0.00 0.00 43 1009.6
20260905181005 32 36 14.5 0.0 0.00 0.00 0.00 44 1009.9
20260905180505 32 165 6.4 0.0 0.00 0.00 0.00 45 1009.9
20260905180005 32 107 6.4 0.0 0.00 0.00 0.00 47 1009.9
20260905175505 32 351 20.9 0.0 0.00 0.00 0.00 45 1009.9
20260905175005 32 68 29.0 0.0 0.00 0.00 0.00 44 1010.3
20260905174505 32 47 14.5 0.0 0.00 0.00 0.00 48 1009.9
20260905174212 32 18 20.9 0.0 0.00 0.00 0.00 47 1010.3
20260905173505 32 164 14.5 0.0 0.00 0.00 0.00 48 1010.3
20260905173005 32 27 20.9 0.0 0.00 0.00 0.00 47 1010.3
20260905172505 31 25 29.0 0.0 0.00 0.00 0.00 49 1010.3
20260905172005 32 81 14.5 0.0 0.00 0.00 0.00 48 1010.6
20260905171713 31 351 29.0 0.0 0.00 0.00 0.00 49 1010.6
20260905171005 31 144 37.0 0.0 0.00 0.00 0.00 50 1010.6
20260905170713 31 357 6.4 0.0 0.00 0.00 0.00 50 1010.6
20260905170212 31 119 0.0 0.0 0.00 0.00 0.00 52 1010.6
20260905165505 31 108 14.5 0.0 0.00 0.00 0.00 52 1011.0
20260905165005 31 196 14.5 0.0 0.00 0.00 0.00 54 1010.6
20260905164505 31 171 29.0 0.0 0.00 0.00 0.00 52 1010.6
20260905164005 31 88 29.0 0.0 0.00 0.00 0.00 53 1010.6
20260905163505 31 39 20.9 0.0 0.00 0.00 0.00 54 1011.0
20260905163004 31 178 14.5 0.0 0.00 0.00 0.00 53 1010.6
20260905162505 31 190 14.5 0.0 0.00 0.00 0.00 53 1011.0
20260905162005 30 45 6.4 0.0 0.00 0.00 0.00 58 1011.0
20260905161505 30 156 29.0 0.0 0.00 0.00 0.00 57 1011.3
20260905161005 31 85 29.0 0.0 0.00 0.00 0.00 55 1011.3
20260905160505 30 119 14.5 0.0 0.00 0.00 0.00 56 1011.3
20260905160005 30 116 20.9 0.0 0.00 0.00 0.00 57 1011.3
20260905155505 30 115 14.5 0.0 0.00 0.00 0.00 58 1011.3
20260905155211 30 156 14.5 0.0 0.00 0.00 0.00 58 1011.3
20260905154505 30 105 20.9 0.0 0.00 0.00 0.00 60 1011.0
20260905154005 30 119 6.4 0.0 0.00 0.00 0.00 59 1011.3
20260905153712 30 179 6.4 0.0 0.00 0.00 0.00 61 1011.0
20260905153005 30 87 20.9 0.0 0.00 0.00 0.00 61 1011.0
20260905152712 29 56 14.5 0.0 0.00 0.00 0.00 62 1011.3
20260905152005 29 355 6.4 0.0 0.00 0.00 0.00 63 1011.6
20260905151505 30 139 20.9 0.0 0.00 0.00 0.00 62 1011.3
20260905151004 28 132 14.5 0.0 0.00 0.00 0.00 65 1011.3
20260905150505 28 105 29.0 0.0 0.00 0.00 0.00 66 1011.6
20260905150005 28 142 29.0 0.0 0.00 0.00 0.00 67 1011.3
20260905145505 28 172 6.4 0.0 0.00 0.00 0.00 67 1011.3
20260905145005 28 165 29.0 0.0 0.00 0.00 0.00 68 1011.3
20260905144505 28 152 14.5 0.0 0.00 0.00 0.00 68 1011.3
20260905144005 28 61 20.9 0.0 0.00 0.00 0.00 70 1011.3
20260905143504 28 164 14.5 0.0 0.00 0.00 0.00 71 1011.3
20260905143005 28 114 14.5 0.0 0.00 0.00 0.00 72 1011.3
20260905142505 27 128 0.0 0.0 0.00 0.00 0.00 73 1011.3
20260905142213 28 199 20.9 0.0 0.00 0.00 0.00 73 1011.3
20260905141712 27 57 14.5 0.0 0.00 0.00 0.00 74 1011.3
20260905141005 27 137 14.5 0.0 0.00 0.00 0.00 76 1011.3
20260905140505 27 76 14.5 0.0 0.00 0.00 0.00 76 1011.0
20260905140005 27 129 14.5 0.0 0.00 0.00 0.00 77 1011.3
20260905135505 27 130 6.4 0.0 0.00 0.00 0.00 77 1011.0
20260905135004 27 107 14.5 0.0 0.00 0.00 0.00 79 1010.6
20260905134712 26 176 6.4 0.0 0.00 0.00 0.00 80 1011.0
20260905134004 26 73 20.9 0.0 0.00 0.00 0.00 82 1011.0
20260905133505 26 109 6.4 0.0 0.00 0.00 0.00 83 1010.6
20260905133005 26 11 6.4 0.0 0.00 0.00 0.00 83 1010.6
20260905132505 26 26 6.4 0.0 0.00 0.00 0.00 84 1010.6
20260905132005 26 103 20.9 0.0 0.00 0.00 0.00 84 1010.6
20260905131505 26 73 20.9 0.0 0.00 0.00 0.00 85 1010.6
20260905131005 25 100 0.0 0.0 0.00 0.00 0.00 86 1010.6
20260905130505 25 67 6.4 0.0 0.00 0.00 0.00 86 1010.3
20260905130004 25 82 0.0 0.0 0.00 0.00 0.00 87 1010.3
20260905125505 25 136 0.0 0.0 0.00 0.00 0.00 87 1010.3
20260905125005 25 82 6.4 0.0 0.00 0.00 0.00 88 1010.3
20260905124505 25 134 0.0 0.0 0.00 0.00 0.00 88 1010.3
20260905124005 25 117 0.0 0.0 0.00 0.00 0.00 88 1009.9
20260905123505 25 70 6.4 0.0 0.00 0.00 0.00 88 1009.9
20260905123212 25 128 0.0 0.0 0.00 0.00 0.00 88 1009.9
20260905122504 25 121 0.0 0.0 0.00 0.00 0.00 88 1009.9
20260905122005 25 154 0.0 0.0 0.00 0.00 0.00 88 1009.9
20260905121505 25 100 6.4 0.0 0.00 0.00 0.00 88 1009.6
20260905121005 25 99 0.0 0.0 0.00 0.00 0.00 88 1009.6
20260905120711 25 107 6.4 0.0 0.00 0.00 0.00 88 1009.9
20260905120005 25 124 0.0 0.0 0.00 0.00 0.00 88 1009.6
20260905115505 25 101 0.0 0.0 0.00 0.00 0.00 88 1009.6
20260905115005 25 94 0.0 0.0 0.00 0.00 0.00 87 1009.3
20260905114713 25 127 0.0 0.0 0.00 0.00 0.00 87 1009.6
20260905114005 25 79 6.4 0.0 0.00 0.00 0.00 87 1009.3
20260905113505 25 126 0.0 0.0 0.00 0.00 0.00 87 1009.6
20260905113005 25 106 0.0 0.0 0.00 0.00 0.00 87 1009.6
20260905112504 25 132 0.0 0.0 0.00 0.00 0.00 86 1009.6
20260905112005 25 93 0.0 0.0 0.00 0.00 0.00 86 1009.3
20260905111505 25 135 0.0 0.0 0.00 0.00 0.00 86 1009.6
20260905111005 25 68 6.4 0.0 0.00 0.00 0.00 86 1009.6
20260905110505 25 99 0.0 0.0 0.00 0.00 0.00 86 1009.6
20260905110005 25 86 6.4 0.0 0.00 0.00 0.00 85 1009.3
20260905105505 25 51 6.4 0.0 0.00 0.00 0.00 85 1009.6
20260905105005 25 129 0.0 0.0 0.00 0.00 0.00 85 1009.3
20260905104712 25 132 0.0 0.0 0.00 0.00 0.00 85 1009.3
20260905104212 25 83 6.4 0.0 0.00 0.00 0.00 85 1009.6
20260905103505 25 121 0.0 0.0 0.00 0.00 0.00 85 1009.6
20260905103005 25 115 0.0 0.0 0.00 0.00 0.00 85 1009.6
20260905102505 25 104 0.0 0.0 0.00 0.00 0.00 85 1009.6
20260905102005 26 108 0.0 0.0 0.00 0.00 0.00 85 1009.3
20260905101505 26 96 0.0 0.0 0.00 0.00 0.00 85 1009.6
20260905101211 26 116 0.0 0.0 0.00 0.00 0.00 85 1009.6
20260905100505 26 126 6.4 0.0 0.00 0.00 0.00 85 1009.6
20260905100005 26 112 6.4 0.0 0.00 0.00 0.00 85 1009.6
20260905095505 26 108 0.0 0.0 0.00 0.00 0.00 85 1009.6
20260905095005 26 141 0.0 0.0 0.00 0.00 0.00 84 1009.9
20260905094505 26 114 0.0 0.0 0.00 0.00 0.00 84 1009.6
20260905094005 26 108 0.0 0.0 0.00 0.00 0.00 84 1009.9
20260905093505 26 128 0.0 0.0 0.00 0.00 0.00 84 1009.6
20260905093004 26 65 0.0 0.0 0.00 0.00 0.00 85 1009.6
20260905092505 26 97 6.4 0.0 0.00 0.00 0.00 84 1009.6
20260905092005 26 96 0.0 0.0 0.00 0.00 0.00 84 1009.9
20260905091712 26 168 0.0 0.0 0.00 0.00 0.00 84 1009.6
20260905091213 26 152 6.4 0.0 0.00 0.00 0.00 84 1009.6
20260905090505 26 138 0.0 0.0 0.00 0.00 0.00 84 1009.9
20260905090005 26 141 6.4 0.0 0.00 0.00 0.00 84 1009.6
20260905085505 26 72 6.4 0.0 0.00 0.00 0.00 85 1009.6
20260905085005 26 112 0.0 0.0 0.00 0.00 0.00 85 1009.9
20260905084712 26 95 6.4 0.0 0.00 0.00 0.00 85 1009.9
20260905084005 26 115 0.0 0.0 0.00 0.00 0.00 85 1009.9
20260905083505 26 103 0.0 0.0 0.00 0.00 0.00 85 1009.9
20260905083005 26 162 0.0 0.0 0.00 0.00 0.00 85 1009.9
20260905082505 26 117 0.0 0.0 0.00 0.00 0.00 85 1009.9
20260905082005 26 130 0.0 0.0 0.00 0.00 0.00 85 1009.9
20260905081711 26 118 6.4 0.0 0.00 0.00 0.00 84 1009.9
20260905081005 26 99 0.0 0.0 0.00 0.00 0.00 84 1009.9
20260905080505 26 78 6.4 0.0 0.00 0.00 0.00 84 1010.3
20260905080005 26 35 6.4 0.0 0.00 0.00 0.00 84 1010.3
20260905075505 26 33 6.4 0.0 0.00 0.00 0.00 84 1009.9
20260905075212 26 128 14.5 0.0 0.00 0.00 0.00 84 1010.3
20260905074505 26 109 0.0 0.0 0.00 0.00 0.00 84 1010.3
20260905074005 26 131 0.0 0.0 0.00 0.00 0.00 84 1010.3
20260905073505 26 127 0.0 0.0 0.00 0.00 0.00 84 1010.3
20260905073005 26 99 0.0 0.0 0.00 0.00 0.00 84 1010.3
20260905072505 26 116 0.0 0.0 0.00 0.00 0.00 84 1010.3
20260905072212 26 123 0.0 0.0 0.00 0.00 0.00 83 1010.6
20260905071505 26 83 6.4 0.0 0.00 0.00 0.00 83 1010.6
20260905071005 26 108 6.4 0.0 0.00 0.00 0.00 83 1010.6
20260905070711 26 110 6.4 0.0 0.00 0.00 0.00 83 1010.6
20260905070005 26 130 0.0 0.0 0.00 0.00 0.00 83 1010.6
20260905065713 26 41 20.9 0.0 0.00 0.00 0.00 83 1010.6
20260905065005 26 109 0.0 0.0 0.00 0.00 0.00 82 1010.6
20260905064713 26 48 14.5 0.0 0.00 0.00 0.00 82 1010.6
20260905064005 26 78 6.4 0.0 0.00 0.00 0.00 82 1010.6
20260905063713 26 111 0.0 0.0 0.00 0.00 0.00 82 1011.0
20260905063005 26 85 14.5 0.0 0.00 0.00 0.00 82 1010.6
20260905062505 26 91 0.0 0.0 0.00 0.00 0.00 82 1010.6
20260905062005 26 134 0.0 0.0 0.00 0.00 0.00 82 1010.6
20260905061504 26 120 20.9 0.0 0.00 0.00 0.00 82 1010.6
20260905061005 26 73 6.4 0.0 0.00 0.00 0.00 82 1010.6
20260905060505 26 86 6.4 0.0 0.00 0.00 0.00 82 1010.6
20260905060212 26 106 0.0 0.0 0.00 0.00 0.00 81 1010.6
20260905055505 26 103 0.0 0.0 0.00 0.00 0.00 81 1010.3
20260905055005 26 150 6.4 0.0 0.00 0.00 0.00 81 1010.6
20260905054505 26 141 0.0 0.0 0.00 0.00 0.00 81 1010.6
20260905054005 26 137 0.0 0.0 0.00 0.00 0.00 80 1010.6
20260905053505 26 129 14.5 0.0 0.00 0.00 0.00 80 1010.6
20260905053005 26 64 6.4 0.0 0.00 0.00 0.00 80 1010.6
20260905052505 26 104 14.5 0.0 0.00 0.00 0.00 80 1010.6
20260905052005 26 21 6.4 0.0 0.00 0.00 0.00 80 1010.6
20260905051505 26 97 14.5 0.0 0.00 0.00 0.00 80 1010.6
20260905051005 26 44 6.4 0.0 0.00 0.00 0.00 80 1010.6
20260905050505 26 131 20.9 0.0 0.00 0.00 0.00 80 1011.0
20260905045505 26 28 14.5 0.0 0.00 0.00 0.00 79 1010.6
20260905045005 26 142 0.0 0.0 0.00 0.00 0.00 79 1010.3
20260905044505 26 48 14.5 0.0 0.00 0.00 0.00 79 1010.3
20260905044005 26 38 14.5 0.0 0.00 0.00 0.00 79 1010.3
20260905043505 26 144 20.9 0.0 0.00 0.00 0.00 79 1010.6
20260905043213 26 128 0.0 0.0 0.00 0.00 0.00 78 1010.6
20260905042504 26 59 20.9 0.0 0.00 0.00 0.00 78 1010.6
20260905042005 26 98 6.4 0.0 0.00 0.00 0.00 78 1010.6
20260905041505 26 72 29.0 0.0 0.00 0.00 0.00 77 1011.0
20260905041005 27 334 29.0 0.0 0.00 0.00 0.00 77 1011.0
20260905040505 27 122 6.4 0.0 0.00 0.00 0.00 77 1010.6
20260905040213 27 109 6.4 0.0 0.00 0.00 0.00 77 1011.0
20260905035712 27 46 20.9 0.0 0.00 0.00 0.00 76 1010.6
20260905035005 27 77 29.0 0.0 0.00 0.00 0.00 76 1011.3
20260905034712 27 134 14.5 0.0 0.00 0.00 0.00 75 1011.0
20260905034005 27 51 6.4 0.0 0.00 0.00 0.00 75 1011.0
20260905033505 27 111 6.4 0.0 0.00 0.00 0.00 75 1011.0
20260905033211 27 142 20.9 0.0 0.00 0.00 0.00 74 1011.0
20260905032505 27 57 14.5 0.0 0.00 0.00 0.00 74 1010.6
20260905032213 27 11 14.5 0.0 0.00 0.00 0.00 74 1011.0
20260905031505 27 154 37.0 0.0 0.00 0.00 0.00 74 1010.6
20260905031005 27 82 14.5 0.0 0.00 0.00 0.00 73 1010.6
20260905030505 27 113 6.4 0.0 0.00 0.00 0.00 73 1010.6
20260905030005 27 65 14.5 0.0 0.00 0.00 0.00 73 1010.6
20260905025504 27 37 6.4 0.0 0.00 0.00 0.00 72 1010.6
20260905025005 27 76 14.5 0.0 0.00 0.00 0.00 72 1010.3
20260905024712 27 57 37.0 0.0 0.00 0.00 0.00 72 1010.3
20260905024005 27 159 20.9 0.0 0.00 0.00 0.00 71 1010.3
20260905023505 27 71 6.4 0.0 0.00 0.00 0.00 71 1010.3
20260905023005 27 72 29.0 0.0 0.00 0.00 0.00 70 1010.6
20260905022505 27 85 6.4 0.0 0.00 0.00 0.00 70 1010.3
20260905022005 27 96 6.4 0.0 0.00 0.00 0.00 69 1009.9
20260905021505 27 51 6.4 0.0 0.00 0.00 0.00 69 1009.6
20260905021212 28 67 29.0 0.0 0.00 0.00 0.00 69 1009.6
20260905020504 28 105 6.4 0.0 0.00 0.00 0.00 68 1009.6
20260905020005 28 86 20.9 0.0 0.00 0.00 0.00 68 1009.6
20260905015505 28 49 14.5 0.0 0.00 0.00 0.00 68 1009.6
20260905015005 28 77 29.0 0.0 0.00 0.00 0.00 67 1009.3
20260905014505 28 102 20.9 0.0 0.00 0.00 0.00 67 1009.3
20260905014212 28 333 20.9 0.0 0.00 0.00 0.00 66 1009.3
20260905013505 28 107 20.9 0.0 0.00 0.00 0.00 66 1009.6
20260905013005 28 64 29.0 0.0 0.00 0.00 0.00 65 1009.6
20260905012505 28 98 6.4 0.0 0.00 0.00 0.00 65 1009.3
20260905012212 28 49 43.5 0.0 0.00 0.00 0.00 65 1009.3
20260905011505 28 101 29.0 0.0 0.00 0.00 0.00 65 1008.9
20260905011004 28 137 14.5 0.0 0.00 0.00 0.00 64 1009.3
20260905010505 28 85 29.0 0.0 0.00 0.00 0.00 64 1008.9
20260905010005 28 82 14.5 0.0 0.00 0.00 0.00 64 1008.9
20260905005713 28 11 43.5 0.0 0.00 0.00 0.00 63 1008.9
20260905005005 28 53 14.5 0.0 0.00 0.00 0.00 63 1008.9
20260905004505 29 67 51.5 0.0 0.00 0.00 0.00 63 1008.9
20260905004005 29 80 37.0 0.0 0.00 0.00 0.00 62 1008.9
20260905003505 29 56 43.5 0.0 0.00 0.00 0.00 61 1008.6
20260905003005 30 39 20.9 0.0 0.00 0.00 0.00 60 1008.6
20260905002713 30 84 37.0 0.0 0.00 0.00 0.00 59 1008.6
20260905002212 30 85 51.5 0.0 0.00 0.00 0.00 58 1008.6
20260905001505 30 187 14.5 0.0 0.00 0.00 0.00 57 1008.6
20260905001005 30 100 37.0 0.0 0.00 0.00 0.00 57 1008.6
20260905000505 30 115 14.5 0.0 0.00 0.00 0.00 55 1008.2
20260905000005 31 309 14.5 0.0 0.00 0.00 0.00 54 1008.2
20260904235504 31 168 29.0 0.0 0.00 0.00 0.00 53 1008.2
20260904235005 31 79 43.5 0.0 0.00 0.00 0.00 51 1007.9
20260904234505 31 84 6.4 0.0 0.00 0.00 0.00 50 1007.9
20260904234005 31 103 43.5 0.0 0.00 0.00 0.00 49 1007.9
20260904233505 31 57 6.4 0.0 0.00 0.00 0.00 49 1007.9
20260904233005 31 80 20.9 0.0 0.00 0.00 0.00 48 1007.9
20260904232712 31 156 29.0 0.0 0.00 0.00 0.00 47 1007.9